User: anonymous   Login
Location: Unspecified
(0.0000°N, 0.0000°E)
Time: 19:11:04
(UTC+01:00)
Language:

Cosmos 1300 - Orbit

View from above orbital plane
View from above orbital plane
View from above satellite
View from above satellite

Ground track
Ground track

The orbit data is extracted from the following two-line orbital elements,

1 12785U 81082A   16341.88091742  .00001198  00000-0  60053-4 0  9993
2 12785  82.5053 263.3331 0001757 124.1317 299.0634 15.16442249922709
Epoch (UTC): 06 December 2016 21:08:31
Eccentricity: 0.0001757
inclination: 82.5053°
perigee height: 515 km
apogee height: 518 km
right ascension of ascending node: 263.3331°
argument of perigee: 124.1317°
revolutions per day: 15.16442249
mean anomaly at epoch: 299.0634°
orbit number at epoch: 92270

The dashed part of the orbit path shows where the satellite is in the earth's shadow,  

DLR